sat.trackr.live / text

‹ back to catalog

JILIN-01 KUANFU 02B 6

NORAD 61194 · 2024-169F

PAYLOAD ACTIVE UNKNOWN

§ Identity

Operator
Country
PRC
Launch date
2024-09-20
Launch site
TAISC
Launch vehicle
Mass (kg)
RCS (m²)

External: N2YO · Heavens-Above · Gunter

§ Orbital elements

Epoch: 2026-05-25T04:53:22.785216Z

Period
95.45 min
Inclination
97.5543°
Eccentricity
0.0017447
Mean motion
15.08684002 rev/d
Perigee alt
528.1 km
Apogee alt
552.3 km
Semi-major
6,918.4 km
B*
2.4318e-4
RAAN
235.1224°
Arg perigee
44.8963°
Mean anomaly
315.3673°
Rev number
9,237

§ Raw data

JILIN-01 KUANFU 02B 61 61194U 24169F   26145.20373594  .00003761  00000+0  24318-3 0  99912 61194  97.5543 235.1224 0017447  44.8963 315.3673 15.08684002 92375

JSON: /api/v1/satellites/61194 · /tle

For live sub-satellite position, see the globe view (requires WebGL).

§ Visibility from observer

Set your observer location to see the next 7 days of passes ≥ 10°. The values pass through the URL so the page stays shareable.

No JS? Fill the form by hand. The geolocation button needs JavaScript.